Weather History for KCOD - November, 2011

Change the Weather History Date:

Tuesday, November 8, 2011

  Actual Average Record
Temperature  
Mean Temperature 36 °F -  
Max Temperature 41 °F 47 °F 69 °F (1934)
Min Temperature 30 °F 27 °F 3 °F (1936)
Degree Days  
Heating Degree Days 30    
Moisture  
Dew Point 10 °F    
Average Humidity 37    
Maximum Humidity 44    
Minimum Humidity 30    
Precipitation  
Precipitation 0.00 in - - ()
Sea Level Pressure  
Sea Level Pressure 30.15 in    
Wind  
Wind Speed 10 mph (SW)    
Max Wind Speed 16 mph    
Max Gust Speed 26 mph    
Visibility 10 miles    
Events      
Averages and records for this station are not official NWS values.
T = Trace of Precipitation, MM = Missing Value Source: NWS Daily Summary

Daily Weather History Graph

Daily Weather History Graph

Search for Another Location

Airport or City:

Trip Planner

Search our weather history database for the weather conditions in past years. The results will help you decide how hot, cold, wet, or windy it might be!

Date:

Astronomy

Nov. 08, 2011 Rise Set
Actual Time 7:02 AM MST 4:56 PM MST
Civil Twilight 6:31 AM MST 5:27 PM MST
Nautical Twilight 5:57 AM MST 6:01 PM MST
Astronomical Twilight 5:22 AM MST 6:36 PM MST
Moon 3:39 PM MST (11/8) 5:02 AM MST (11/8)
Length of Visible Light 10h 55m
Length of Day
9h 53m
Waxing Gibbous, 96% of the Moon is Illuminated
Nov 8
Waxing Gibbous
Nov 10
Full
Nov 18
Last Quarter
Nov 24
New
Dec 2
First Quarter

Hourly Weather History & Observations

Time (MST) Temp. Windchill Dew Point Humidity Pressure Visibility Wind Dir Wind Speed Gust Speed Precip Events Conditions
12:15 AM 32.0 °F 21.2 °F 8.6 °F 38% 30.04 in 10.0 mi SW 16.1 mph 23.0 mph N/A   Clear
12:35 AM 32.0 °F 23.6 °F 8.6 °F 38% 30.04 in 10.0 mi SSW 10.4 mph 17.3 mph N/A   Clear
12:55 AM 32.0 °F 25.6 °F 10.4 °F 41% 30.04 in 10.0 mi SSW 6.9 mph 18.4 mph N/A   Clear
1:15 AM 30.2 °F 21.3 °F 10.4 °F 44% 30.04 in 10.0 mi SW 10.4 mph - N/A   Clear
1:35 AM 32.0 °F 22.1 °F 10.4 °F 41% 30.04 in 10.0 mi SSW 13.8 mph 18.4 mph N/A   Clear
1:55 AM 32.0 °F 23.6 °F 10.4 °F 41% 30.04 in 10.0 mi SW 10.4 mph 24.2 mph N/A   Clear
2:15 AM 30.2 °F 24.3 °F 10.4 °F 44% 30.05 in 10.0 mi WNW 5.8 mph - N/A   Clear
2:35 AM 30.2 °F 26.7 °F 8.6 °F 40% 30.05 in 10.0 mi WSW 3.5 mph - N/A   Clear
2:55 AM 30.2 °F 26.7 °F 8.6 °F 40% 30.05 in 10.0 mi WSW 3.5 mph - N/A   Partly Cloudy
3:35 AM 30.2 °F 24.3 °F 8.6 °F 40% 30.04 in 10.0 mi WSW 5.8 mph - N/A   Partly Cloudy
3:55 AM 30.2 °F 22.6 °F 10.4 °F 44% 30.05 in 10.0 mi West 8.1 mph 16.1 mph N/A   Clear
4:15 AM 32.0 °F 26.4 °F 8.6 °F 38% 30.05 in 10.0 mi West 5.8 mph - N/A   Partly Cloudy
4:35 AM 33.8 °F 24.8 °F 10.4 °F 38% 30.05 in 10.0 mi SW 12.7 mph 21.9 mph N/A   Mostly Cloudy
5:16 AM 33.8 °F 23.5 °F 10.4 °F 38% 30.06 in 10.0 mi SW 16.1 mph 26.5 mph N/A   Overcast
5:35 AM 33.8 °F 24.8 °F 10.4 °F 38% 30.06 in 10.0 mi SW 12.7 mph 23.0 mph N/A   Mostly Cloudy
5:55 AM 33.8 °F 24.8 °F 10.4 °F 38% 30.07 in 10.0 mi SW 12.7 mph 21.9 mph N/A   Partly Cloudy
6:15 AM 33.8 °F 24.8 °F 10.4 °F 38% 30.07 in 10.0 mi SW 12.7 mph 24.2 mph N/A   Clear
6:35 AM 33.8 °F 24.8 °F 10.4 °F 38% 30.08 in 10.0 mi SW 12.7 mph 18.4 mph N/A   Clear
6:55 AM 33.8 °F 24.8 °F 10.4 °F 38% 30.08 in 10.0 mi SW 12.7 mph 18.4 mph N/A   Clear
7:15 AM 32.0 °F 25.6 °F 10.4 °F 41% 30.09 in 10.0 mi West 6.9 mph 18.4 mph N/A   Clear
7:35 AM 32.0 °F 24.8 °F 10.4 °F 41% 30.10 in 10.0 mi WSW 8.1 mph - N/A   Clear
8:35 AM 33.8 °F 25.3 °F 10.4 °F 38% 30.12 in 10.0 mi SW 11.5 mph - N/A   Clear
8:55 AM 35.6 °F 27.5 °F 10.4 °F 35% 30.12 in 10.0 mi WSW 11.5 mph 16.1 mph N/A   Clear
9:15 AM 35.6 °F 27.5 °F 12.2 °F 38% 30.13 in 10.0 mi SSW 11.5 mph - N/A   Clear
9:35 AM 35.6 °F 27.5 °F 12.2 °F 38% 30.13 in 10.0 mi WSW 11.5 mph - N/A   Clear
9:55 AM 37.4 °F 32.1 °F 12.2 °F 36% 30.14 in 10.0 mi WSW 6.9 mph - N/A   Clear
10:15 AM 37.4 °F 30.8 °F 12.2 °F 36% 30.14 in 10.0 mi SW 9.2 mph 18.4 mph N/A   Clear
10:35 AM 37.4 °F 29.8 °F 12.2 °F 36% 30.14 in 10.0 mi SW 11.5 mph 18.4 mph N/A   Clear
10:55 AM 37.4 °F 30.8 °F 12.2 °F 36% 30.15 in 10.0 mi WSW 9.2 mph 18.4 mph N/A   Scattered Clouds
11:15 AM 39.2 °F 32.0 °F 12.2 °F 33% 30.15 in 10.0 mi SW 11.5 mph 18.4 mph N/A   Mostly Cloudy
11:35 AM 39.2 °F 34.2 °F 12.2 °F 33% 30.14 in 10.0 mi SW 6.9 mph 18.4 mph N/A   Partly Cloudy
11:55 AM 39.2 °F 33.0 °F 12.2 °F 33% 30.14 in 10.0 mi SSW 9.2 mph 16.1 mph N/A   Clear
12:15 PM 39.2 °F 33.6 °F 12.2 °F 33% 30.14 in 10.0 mi WSW 8.1 mph - N/A   Mostly Cloudy
12:35 PM 41.0 °F 36.4 °F 12.2 °F 31% 30.14 in 10.0 mi WNW 6.9 mph - N/A   Overcast
1:16 PM 37.4 °F 30.3 °F 10.4 °F 33% 30.15 in 10.0 mi West 10.4 mph - N/A   Scattered Clouds
1:35 PM 37.4 °F 30.3 °F 8.6 °F 30% 30.16 in 10.0 mi WNW 10.4 mph 18.4 mph N/A   Clear
1:55 PM 39.2 °F 34.2 °F 10.4 °F 31% 30.16 in 10.0 mi West 6.9 mph 16.1 mph N/A   Clear
2:15 PM - - - N/A% 30.15 in 10.0 mi WNW 9.2 mph 16.1 mph N/A   Clear
2:35 PM - - - N/A% 30.16 in 10.0 mi SW 10.4 mph 16.1 mph N/A   Partly Cloudy
3:15 PM - - - N/A% 30.17 in 10.0 mi WSW 8.1 mph 16.1 mph N/A   Clear
3:55 PM 37.4 °F 30.8 °F 10.4 °F 33% 30.19 in 10.0 mi WSW 9.2 mph 19.6 mph N/A   Clear
4:15 PM 37.4 °F 30.8 °F 8.6 °F 30% 30.20 in 10.0 mi WSW 9.2 mph - N/A   Clear
4:35 PM 35.6 °F 29.9 °F 10.4 °F 35% 30.21 in 10.0 mi West 6.9 mph - N/A   Clear
4:55 PM 35.6 °F 29.9 °F 10.4 °F 35% 30.22 in 10.0 mi WSW 6.9 mph - N/A   Clear
5:15 PM 35.6 °F 28.6 °F 10.4 °F 35% 30.23 in 10.0 mi WSW 9.2 mph - N/A   Clear
5:35 PM 33.8 °F 25.3 °F 10.4 °F 38% 30.24 in 10.0 mi SW 11.5 mph 20.7 mph N/A   Clear
5:55 PM 33.8 °F 24.3 °F 10.4 °F 38% 30.25 in 10.0 mi SSW 13.8 mph 19.6 mph N/A   Clear
6:15 PM 33.8 °F 25.3 °F 10.4 °F 38% 30.25 in 10.0 mi SSW 11.5 mph 20.7 mph N/A   Clear
6:35 PM 33.8 °F 24.3 °F 10.4 °F 38% 30.25 in 10.0 mi SW 13.8 mph 23.0 mph N/A   Clear
6:55 PM 33.8 °F 25.8 °F 10.4 °F 38% 30.26 in 10.0 mi SSW 10.4 mph 17.3 mph N/A   Clear
7:15 PM 33.8 °F 25.3 °F 10.4 °F 38% 30.26 in 10.0 mi SSW 11.5 mph 19.6 mph N/A   Clear
7:55 PM 33.8 °F 25.3 °F 10.4 °F 38% 30.27 in 10.0 mi SW 11.5 mph 23.0 mph N/A   Clear
8:15 PM 33.8 °F 23.5 °F 10.4 °F 38% 30.27 in 10.0 mi SW 16.1 mph 21.9 mph N/A   Clear
8:35 PM 33.8 °F 24.8 °F 10.4 °F 38% 30.28 in 10.0 mi SW 12.7 mph 21.9 mph N/A   Clear
8:55 PM 33.8 °F 24.3 °F 8.6 °F 35% 30.28 in 10.0 mi SW 13.8 mph 21.9 mph N/A   Clear
9:15 PM 33.8 °F 25.3 °F 8.6 °F 35% 30.29 in 10.0 mi SW 11.5 mph 21.9 mph N/A   Clear
9:35 PM 33.8 °F 25.8 °F 10.4 °F 38% 30.30 in 10.0 mi South 10.4 mph 17.3 mph N/A   Clear
9:55 PM 30.2 °F 23.4 °F 10.4 °F 44% 30.30 in 10.0 mi SSW 6.9 mph 16.1 mph N/A   Clear
10:35 PM 33.8 °F 25.8 °F 10.4 °F 38% 30.30 in 10.0 mi SSW 10.4 mph 20.7 mph N/A   Clear
10:55 PM 33.8 °F 24.8 °F 8.6 °F 35% 30.31 in 10.0 mi SSW 12.7 mph 17.3 mph N/A   Clear
11:15 PM 33.8 °F 25.8 °F 8.6 °F 35% 30.32 in 10.0 mi SW 10.4 mph 16.1 mph N/A   Clear
11:35 PM 33.8 °F 25.3 °F 10.4 °F 38% 30.33 in 10.0 mi SW 11.5 mph 23.0 mph N/A   Clear
11:55 PM 32.0 °F 23.0 °F 10.4 °F 41% 30.33 in 10.0 mi SW 11.5 mph 19.6 mph N/A   Clear